Location: Cella
(44.7333°N, 10.5667°E)
Time: 08:38:37
(UTC+00:00)

Cosmos 1777 Rocket - Pass Details

Date: 27 June 2021
Orbit: 757 x 776 km, 74.0° (Epoch: 28 July)

Event Time Altitude Azimuth Distance (km) Brightness Sun altitude
Rises 20:34:43 0° 344° (NNW) 3,264 8.6 -12.1°
Reaches altitude 10° 20:37:15 10° 352° (N) 2,334 7.5 -12.4°
Maximum altitude 20:42:15 40° 62° (ENE) 1,127 4.8 -12.9°
Enters shadow 20:45:50 18° 124° (SE) 1,854 5.4 -13.3°
